Temp
62 62 62 61 61 61 61 61 61 61 61 61 60 60 60 60 60 60 60 60 60 60 60 60 60 60 61 62 62 62 61 61 61 61 61 61 61 60 60 60 59 59 59 59 59 59 59 59 58 57 56 55 53 52 52 51 51 50 50 50 50 51 51 51 51 51 52 52 52
62 62 62 62 62 61 61 61 61 61 61 61 61 61 60 60 60 60 60 60 60 60 60 60 60 60 61 62 62 62 61 61 61 61 61 61 60 59 59 59 59 58 58 58 58 58 58 58 57 56 55 54 53 52 51 51 50 50 50 50 51 51 51 51 52 52 52 52 52
62 62 62 62 62 62 61 61 61 61 61 61 61 61 61 60 60 60 60 60 60 60 60 60 59 60 61 61 61 61 61 60 61 61 60 60 60 60 60 59 59 58 57 57 57 57 57 57 56 55 54 53 52 51 51 51 51 50 50 50 51 51 51 51 52 52 53 52 53
62 63 63 63 63 62 62 61 61 61 61 61 61 60 60 60 60 60 60 60 60 60 60 60 58 58 59 59 60 60 60 60 61 60 60 60 60 60 60 59 59 59 58 57 57 56 56 57 56 55 54 53 52 51 50 51 50 50 50 50 51 51 51 52 52 52 53 53 53
63 63 63 63 63 63 62 61 61 61 61 60 60 60 60 60 59 59 59 59 59 60 60 60 57 57 58 59 60 60 61 61 60 60 59 59 59 59 59 59 59 58 58 57 56 56 55 56 55 54 53 52 51 51 51 50 50 50 50 50 51 51 51 51 52 52 52 53 53
62 63 63 62 62 62 62 61 61 61 60 60 60 60 60 60 60 60 60 60 60 61 61 59 58 58 58 60 60 60 60 60 59 59 58 57 58 58 59 58 58 57 56 57 56 55 55 55 55 54 53 52 51 51 51 51 50 50 50 50 50 50 51 51 51 52 52 52 53
62 62 62 62 62 61 61 61 60 60 60 60 60 60 60 60 60 60 60 60 60 60 60 59 58 58 59 59 59 59 59 58 58 58 58 57 58 57 57 57 56 56 56 56 56 56 55 55 54 54 53 53 51 51 51 50 50 49 49 49 50 50 50 50 51 51 51 52 52
62 62 62 62 61 61 60 60 60 60 61 61 60 60 61 60 60 60 61 61 60 59 59 58 58 58 58 58 57 57 57 57 57 57 57 57 57 57 56 55 55 55 55 55 56 56 55 54 54 53 52 52 51 51 51 51 50 49 49 49 50 50 50 50 51 51 51 51 52
61 61 61 61 61 61 61 60 60 60 61 61 60 61 61 60 59 59 60 60 60 59 58 58 58 58 58 57 56 56 55 55 55 55 56 56 55 55 55 55 55 55 55 55 55 55 55 54 54 53 52 51 50 50 50 50 50 49 49 49 49 50 50 50 50 50 51 51 51
61 61 61 61 61 61 61 61 61 61 61 61 61 61 61 60 60 60 60 59 58 58 58 58 57 57 57 56 56 55 55 54 54 54 54 54 54 54 54 54 54 54 54 55 55 55 54 54 53 52 52 51 50 50 50 50 49 49 48 48 48 49 49 49 50 50 50 50 50
61 60 60 60 61 61 61 61 61 61 61 60 60 60 60 60 60 60 59 58 58 58 58 58 58 57 56 55 55 55 55 54 54 54 54 54 54 54 54 54 54 54 54 54 54 54 53 53 52 52 51 51 51 50 50 50 49 48 48 47 48 48 48 49 49 49 50 50 51
61 61 60 60 60 60 60 60 60 60 60 60 60 60 60 60 60 59 59 58 59 59 58 58 57 56 55 55 55 55 55 54 54 54 54 53 54 54 54 54 54 53 53 53 53 53 52 52 51 51 51 52 51 50 50 49 49 48 47 47 47 47 47 48 49 49 50 50 51
62 61 61 60 60 60 60 60 59 59 59 59 59 59 59 60 60 59 59 59 59 58 57 57 57 56 55 55 55 54 54 54 54 54 54 53 53 53 53 53 53 53 53 53 53 53 52 52 51 51 51 51 51 50 50 49 48 48 47 47 47 47 47 48 48 49 50 50 51
62 61 61 60 60 60 59 59 59 59 59 59 59 59 59 60 60 59 58 58 58 58 58 58 57 57 56 55 55 55 54 54 54 54 54 53 53 53 53 53 53 53 53 53 53 53 52 52 52 51 51 51 51 50 50 49 48 47 47 47 47 47 47 48 48 49 50 50 51
61 61 61 60 60 59 59 59 59 60 60 60 60 59 59 59 59 58 58 57 58 58 58 58 57 57 57 56 55 55 54 54 54 54 53 53 53 53 53 53 53 53 53 53 53 53 52 52 52 51 51 51 50 50 49 49 48 48 47 47 47 47 47 48 49 49 50 50 51
61 61 60 60 60 59 59 59 60 60 60 60 60 60 59 59 58 58 57 56 57 58 58 57 56 56 56 56 56 55 54 54 54 54 53 53 53 53 53 53 53 53 53 53 52 52 52 52 52 51 51 51 50 50 49 49 48 48 47 47 47 48 48 49 49 50 50 51 52
61 60 60 60 59 59 59 59 60 60 60 60 60 60 59 59 58 57 56 56 57 57 56 55 56 57 57 57 56 55 55 54 54 53 53 53 53 53 53 53 53 53 53 52 52 52 52 52 52 51 51 51 50 50 49 49 48 48 48 48 48 48 49 49 50 50 51 52 52
60 60 60 60 60 59 59 59 59 59 59 60 60 59 59 59 57 56 56 56 57 56 55 55 55 56 56 56 56 56 55 54 54 54 53 53 53 53 53 53 53 53 53 52 52 52 52 52 52 51 51 51 50 50 49 49 48 48 48 48 48 49 49 50 50 51 51 52 53
60 60 60 60 60 60 60 60 59 59 59 60 59 59 59 59 58 57 57 57 58 57 57 56 55 55 55 55 55 55 55 54 54 53 53 53 53 53 53 53 53 53 52 52 52 52 52 52 51 51 51 51 50 50 49 49 49 48 49 49 49 49 50 50 51 51 52 52 53
59 60 60 60 60 60 60 60 60 60 60 59 59 59 59 59 59 58 58 58 58 58 58 57 55 55 55 55 54 54 54 54 54 53 53 53 53 53 53 53 53 53 52 52 52 52 52 51 51 51 51 51 50 50 49 49 49 49 49 49 49 50 50 50 51 51 52 52 53
59 60 60 60 60 60 60 60 60 60 60 59 59 59 59 59 59 59 58 58 59 58 58 56 55 55 54 54 54 54 54 54 54 53 53 53 53 53 53 53 53 52 52 52 52 52 52 51 51 51 51 50 50 50 49 49 48 49 49 49 49 50 50 51 51 51 52 52 53
60 60 60 60 60 60 60 61 60 60 60 59 59 59 59 59 59 59 59 59 58 58 58 57 56 55 55 55 54 54 54 54 54 53 53 53 53 53 53 53 53 52 52 52 52 52 52 51 51 51 51 50 50 50 49 49 48 48 49 49 49 50 50 51 51 52 52 53 53
60 60 60 60 60 60 60 60 60 60 60 59 59 59 59 59 59 59 59 59 58 58 58 58 57 56 55 55 54 54 54 53 53 53 53 53 53 53 53 53 53 52 52 52 52 52 51 51 51 51 51 51 50 50 49 49 49 48 48 49 49 49 50 51 51 52 53 53 54
60 60 60 60 60 60 60 60 60 59 59 59 59 59 58 58 59 59 59 58 58 58 58 58 57 57 56 55 54 54 54 53 53 53 53 54 53 53 53 53 53 53 53 52 52 53 52 52 51 51 51 51 50 50 49 49 49 48 48 48 49 49 50 50 51 52 53 54 54
60 60 60 60 60 60 60 60 59 59 59 59 59 59 59 58 58 58 58 58 58 58 58 57 57 57 57 56 55 54 54 54 53 53 53 53 53 53 53 53 53 53 52 52 54 55 55 55 53 52 51 51 50 50 50 49 49 49 48 48 48 49 49 50 51 52 53 53 54
60 60 60 60 60 60 59 59 59 59 59 59 59 59 59 59 59 58 58 58 58 58 58 57 57 56 56 57 56 55 54 54 54 53 53 53 53 53 53 53 52 52 52 53 55 56 57 57 56 55 53 51 50 50 49 49 49 49 48 48 48 49 49 49 50 51 52 53 54
60 60 60 60 60 59 59 59 59 59 59 59 59 58 59 59 59 59 58 58 58 58 57 57 56 56 57 57 56 55 54 54 54 54 53 53 53 53 54 54 53 52 52 54 56 57 57 57 57 56 55 52 50 49 49 48 48 48 48 48 49 49 49 49 50 51 52 53 54
59 59 59 60 59 59 59 59 59 59 58 59 59 59 59 59 59 58 58 58 58 57 57 57 57 57 57 57 56 56 55 55 55 54 54 53 53 54 54 54 53 53 54 56 57 57 57 57 58 57 56 54 51 50 49 48 48 48 48 48 48 49 49 49 50 51 52 53 54
59 59 59 59 59 59 59 59 59 58 59 59 59 59 59 59 58 58 58 58 58 57 57 57 57 57 57 57 56 57 57 57 55 54 54 54 54 54 55 55 55 55 56 57 57 57 57 57 58 58 57 56 52 50 49 48 48 48 48 48 48 49 49 49 50 51 52 53 54
59 59 59 59 59 59 59 59 59 59 59 59 59 59 58 58 58 58 58 58 57 57 57 58 57 57 57 56 57 57 57 57 56 55 54 53 54 54 54 56 55 55 56 57 57 57 57 57 58 58 58 57 54 51 49 49 48 48 48 48 48 49 49 49 50 51 52 53 53
59 59 59 59 59 59 59 59 59 59 59 59 59 58 58 58 57 57 57 57 57 58 58 58 57 57 57 58 57 57 57 57 57 56 55 54 54 55 55 56 55 55 55 57 57 57 57 57 57 58 58 57 54 51 50 49 48 48 48 48 49 49 49 50 51 52 52 52 52
59 59 59 59 59 59 59 59 59 59 59 59 58 58 58 57 57 58 58 58 57 57 58 58 57 57 57 58 58 58 58 57 56 55 54 54 54 55 55 55 55 55 55 57 57 57 57 57 57 57 57 58 54 52 50 49 49 49 48 49 49 49 50 50 51 52 52 51 51
59 59 59 59 59 59 59 59 59 59 59 58 58 58 57 57 57 57 57 57 57 57 57 57 57 56 57 57 57 57 57 56 55 55 55 56 55 55 55 55 55 55 56 57 57 57 57 57 57 57 57 57 54 52 51 50 49 49 49 49 49 50 50 51 52 52 51 51 51
59 59 59 59 59 59 59 59 59 58 58 57 57 57 57 56 56 57 57 57 57 57 57 57 57 57 57 57 57 57 57 57 56 55 55 56 56 56 55 53 52 54 56 57 57 57 57 57 57 57 57 57 54 52 51 50 49 49 49 49 49 50 51 52 52 52 51 51 51
59 59 59 58 58 58 58 58 58 58 57 57 57 57 56 56 56 56 57 57 57 57 57 57 57 57 57 57 57 57 56 56 56 56 55 55 55 55 55 54 53 54 56 57 57 57 57 57 57 57 57 56 53 52 51 51 50 49 49 49 49 50 51 52 52 52 51 51 51
59 59 58 58 58 58 58 58 58 57 57 57 56 56 56 56 56 57 57 57 57 57 57 57 57 57 57 57 56 56 56 56 56 56 56 55 55 55 54 54 54 55 56 57 57 57 57 57 57 57 56 55 53 52 51 50 50 49 49 49 49 50 51 52 52 51 51 51 51
59 59 58 58 58 58 58 57 57 57 56 56 56 55 55 56 56 56 57 57 56 56 56 56 56 56 56 56 56 56 56 57 56 56 55 55 54 54 54 54 54 55 56 56 57 57 57 57 57 57 56 54 53 52 51 50 49 49 49 49 50 51 52 52 51 51 51 51 51
59 59 58 58 57 57 57 57 57 56 56 56 56 56 56 56 56 56 56 56 56 55 55 55 56 56 56 56 56 56 56 57 56 56 55 55 54 54 54 54 54 54 54 55 56 56 57 57 57 56 56 54 53 52 51 50 49 49 49 49 50 51 52 51 51 51 51 51 52
59 59 58 58 57 57 57 57 56 56 56 56 56 56 56 56 56 56 56 56 56 56 55 55 55 56 56 56 56 56 56 56 57 56 56 55 55 55 55 54 54 54 54 55 56 56 56 57 57 57 56 54 53 52 50 49 49 49 49 49 50 51 51 51 50 50 50 51 52
59 59 58 58 57 57 57 57 56 56 56 55 55 56 56 56 56 56 57 56 56 56 56 56 56 56 56 56 56 55 55 56 56 56 56 56 56 56 55 54 54 54 54 55 56 56 56 57 57 57 56 54 53 52 50 50 49 49 49 49 50 50 50 50 50 50 50 50 51
59 59 58 58 57 57 57 57 56 56 56 55 55 56 56 56 56 56 56 56 56 56 56 56 56 56 56 56 55 55 55 55 55 56 56 56 56 56 55 54 54 54 55 55 56 56 56 57 57 57 56 54 53 52 51 50 49 48 49 49 50 50 49 49 49 49 49 49 50
MSLP
1018.49 1018.45 1018.41 1018.41 1018.33 1018.25 1018.25 1018.13 1018.13 1018.09 1018.05 1017.93 1017.85 1017.81 1017.73 1017.69 1017.57 1017.53 1017.45 1017.37 1017.25 1017.17 1017.05 1016.93 1016.85 1016.69 1016.57 1016.49 1016.37 1016.25 1016.13 1016.05 1015.97 1015.89 1015.77 1015.65 1015.49 1015.33 1015.21 1015.13 1015.01 1014.93 1014.81 1014.69 1014.61 1014.45 1014.29 1014.25 1014.13 1013.97 1013.85 1013.77 1013.69 1013.65 1013.61 1013.57 1013.49 1013.25 1012.97 1012.57 1012.13 1011.65 1011.25 1010.89 1010.57 1010.29 1010.09 1009.85 1009.73
1018.29 1018.25 1018.25 1018.25 1018.21 1018.13 1018.09 1017.97 1017.93 1017.89 1017.85 1017.77 1017.73 1017.69 1017.61 1017.57 1017.53 1017.41 1017.33 1017.25 1017.17 1017.09 1016.97 1016.81 1016.69 1016.57 1016.45 1016.33 1016.25 1016.17 1016.09 1015.93 1015.81 1015.69 1015.53 1015.41 1015.25 1015.13 1015.05 1014.93 1014.85 1014.73 1014.65 1014.57 1014.45 1014.37 1014.21 1014.09 1013.97 1013.85 1013.69 1013.57 1013.49 1013.41 1013.33 1013.25 1013.21 1012.97 1012.61 1012.17 1011.77 1011.33 1010.93 1010.49 1010.13 1009.85 1009.69 1009.53 1009.41
1018.13 1018.13 1018.09 1018.05 1017.97 1017.89 1017.85 1017.77 1017.73 1017.69 1017.69 1017.69 1017.65 1017.61 1017.57 1017.53 1017.45 1017.33 1017.25 1017.13 1017.05 1016.97 1016.85 1016.69 1016.57 1016.45 1016.37 1016.25 1016.17 1016.09 1015.97 1015.85 1015.69 1015.53 1015.37 1015.21 1015.09 1014.97 1014.85 1014.77 1014.65 1014.57 1014.49 1014.41 1014.29 1014.21 1014.13 1013.97 1013.85 1013.65 1013.49 1013.33 1013.25 1013.17 1013.05 1012.93 1012.85 1012.61 1012.25 1011.81 1011.41 1011.01 1010.61 1010.25 1009.89 1009.69 1009.49 1009.29 1009.13
1017.93 1017.89 1017.85 1017.81 1017.73 1017.69 1017.65 1017.65 1017.65 1017.61 1017.61 1017.61 1017.57 1017.53 1017.49 1017.41 1017.33 1017.25 1017.13 1016.97 1016.89 1016.81 1016.65 1016.49 1016.41 1016.33 1016.25 1016.17 1016.01 1015.89 1015.81 1015.69 1015.53 1015.37 1015.21 1015.09 1014.97 1014.85 1014.73 1014.65 1014.49 1014.37 1014.25 1014.25 1014.13 1014.05 1013.93 1013.81 1013.65 1013.45 1013.25 1013.13 1012.97 1012.89 1012.81 1012.61 1012.45 1012.25 1011.89 1011.49 1011.13 1010.77 1010.41 1010.01 1009.73 1009.53 1009.29 1009.05 1008.81
1017.73 1017.69 1017.69 1017.69 1017.65 1017.61 1017.61 1017.61 1017.57 1017.53 1017.53 1017.53 1017.49 1017.41 1017.37 1017.29 1017.17 1017.05 1016.97 1016.85 1016.69 1016.53 1016.41 1016.33 1016.25 1016.17 1016.13 1016.01 1015.85 1015.73 1015.61 1015.53 1015.41 1015.25 1015.13 1014.97 1014.89 1014.77 1014.61 1014.49 1014.37 1014.25 1014.13 1014.09 1013.97 1013.85 1013.73 1013.61 1013.41 1013.21 1013.01 1012.85 1012.77 1012.65 1012.49 1012.33 1012.13 1011.85 1011.57 1011.25 1010.97 1010.65 1010.29 1009.97 1009.65 1009.41 1009.13 1008.81 1008.45
1017.57 1017.57 1017.57 1017.57 1017.53 1017.53 1017.53 1017.53 1017.53 1017.49 1017.45 1017.45 1017.37 1017.25 1017.13 1017.09 1016.97 1016.85 1016.69 1016.57 1016.41 1016.29 1016.25 1016.17 1016.09 1016.01 1015.97 1015.85 1015.73 1015.61 1015.45 1015.37 1015.25 1015.13 1014.97 1014.89 1014.73 1014.57 1014.41 1014.33 1014.21 1014.13 1014.01 1013.93 1013.81 1013.69 1013.53 1013.41 1013.17 1012.93 1012.73 1012.57 1012.49 1012.37 1012.21 1012.01 1011.81 1011.53 1011.25 1010.97 1010.73 1010.49 1010.21 1009.89 1009.53 1009.25 1008.93 1008.57 1008.17
1017.41 1017.41 1017.41 1017.41 1017.41 1017.41 1017.41 1017.41 1017.41 1017.41 1017.37 1017.25 1017.17 1017.05 1016.93 1016.85 1016.73 1016.65 1016.53 1016.41 1016.25 1016.13 1016.09 1016.01 1015.93 1015.85 1015.77 1015.65 1015.53 1015.45 1015.33 1015.21 1015.13 1014.97 1014.85 1014.69 1014.57 1014.41 1014.33 1014.17 1014.09 1013.97 1013.85 1013.69 1013.53 1013.41 1013.25 1013.13 1012.93 1012.69 1012.45 1012.29 1012.17 1011.97 1011.85 1011.73 1011.49 1011.21 1010.93 1010.69 1010.49 1010.29 1010.05 1009.65 1009.33 1008.97 1008.65 1008.25 1007.93
1017.29 1017.29 1017.29 1017.29 1017.29 1017.29 1017.29 1017.25 1017.25 1017.25 1017.13 1017.01 1016.93 1016.81 1016.69 1016.61 1016.57 1016.45 1016.33 1016.21 1016.09 1015.97 1015.93 1015.85 1015.81 1015.69 1015.61 1015.49 1015.37 1015.25 1015.17 1015.05 1014.93 1014.85 1014.73 1014.57 1014.41 1014.29 1014.17 1014.05 1013.93 1013.77 1013.65 1013.53 1013.37 1013.17 1012.97 1012.85 1012.69 1012.45 1012.25 1012.13 1011.93 1011.69 1011.53 1011.41 1011.21 1010.97 1010.69 1010.41 1010.21 1010.01 1009.77 1009.41 1009.09 1008.73 1008.41 1008.01 1007.69
1017.13 1017.13 1017.17 1017.17 1017.13 1017.13 1017.09 1017.09 1017.05 1016.97 1016.89 1016.81 1016.69 1016.61 1016.53 1016.41 1016.37 1016.25 1016.17 1016.05 1015.93 1015.85 1015.77 1015.69 1015.61 1015.49 1015.41 1015.29 1015.21 1015.13 1015.01 1014.93 1014.81 1014.69 1014.57 1014.41 1014.25 1014.13 1014.01 1013.89 1013.69 1013.53 1013.41 1013.25 1013.13 1012.97 1012.77 1012.65 1012.41 1012.21 1012.01 1011.89 1011.69 1011.49 1011.29 1011.13 1010.97 1010.69 1010.41 1010.09 1009.85 1009.61 1009.41 1009.13 1008.85 1008.53 1008.21 1007.85 1007.45
1016.93 1016.97 1017.01 1017.01 1016.97 1016.97 1016.89 1016.89 1016.85 1016.81 1016.69 1016.57 1016.49 1016.41 1016.33 1016.25 1016.17 1016.09 1015.97 1015.85 1015.77 1015.69 1015.57 1015.49 1015.37 1015.25 1015.17 1015.09 1015.01 1014.97 1014.85 1014.77 1014.69 1014.57 1014.41 1014.25 1014.13 1013.97 1013.85 1013.65 1013.49 1013.29 1013.13 1012.97 1012.85 1012.69 1012.57 1012.37 1012.13 1011.97 1011.81 1011.65 1011.45 1011.25 1011.05 1010.89 1010.73 1010.49 1010.21 1009.89 1009.53 1009.21 1008.93 1008.69 1008.49 1008.21 1007.89 1007.53 1007.13
1016.81 1016.81 1016.81 1016.81 1016.81 1016.81 1016.77 1016.69 1016.65 1016.57 1016.49 1016.41 1016.29 1016.25 1016.13 1016.05 1015.97 1015.85 1015.81 1015.69 1015.61 1015.49 1015.37 1015.25 1015.17 1015.05 1014.97 1014.89 1014.85 1014.77 1014.69 1014.57 1014.45 1014.33 1014.17 1014.01 1013.89 1013.73 1013.57 1013.41 1013.25 1013.13 1012.93 1012.77 1012.65 1012.49 1012.29 1012.13 1011.89 1011.69 1011.53 1011.37 1011.21 1011.01 1010.81 1010.65 1010.53 1010.33 1010.09 1009.73 1009.41 1008.97 1008.57 1008.17 1007.97 1007.73 1007.41 1006.97 1006.61
1016.57 1016.57 1016.61 1016.61 1016.61 1016.61 1016.57 1016.53 1016.45 1016.41 1016.29 1016.21 1016.13 1016.05 1015.97 1015.85 1015.77 1015.69 1015.57 1015.49 1015.37 1015.25 1015.13 1015.05 1015.01 1014.93 1014.81 1014.73 1014.69 1014.57 1014.49 1014.37 1014.25 1014.13 1013.97 1013.81 1013.65 1013.53 1013.37 1013.17 1013.01 1012.85 1012.69 1012.57 1012.41 1012.25 1012.09 1011.85 1011.69 1011.45 1011.25 1011.05 1010.93 1010.77 1010.61 1010.45 1010.29 1010.13 1009.85 1009.53 1009.25 1008.85 1008.41 1007.89 1007.53 1007.21 1006.85 1006.49 1006.09
1016.41 1016.41 1016.41 1016.41 1016.41 1016.41 1016.37 1016.33 1016.25 1016.17 1016.13 1016.01 1015.89 1015.85 1015.73 1015.61 1015.53 1015.45 1015.37 1015.25 1015.13 1015.05 1014.97 1014.85 1014.85 1014.73 1014.65 1014.53 1014.41 1014.37 1014.25 1014.13 1014.01 1013.85 1013.73 1013.53 1013.41 1013.25 1013.13 1012.97 1012.81 1012.65 1012.49 1012.29 1012.17 1012.01 1011.85 1011.61 1011.41 1011.25 1011.01 1010.77 1010.61 1010.45 1010.37 1010.25 1010.09 1009.89 1009.61 1009.29 1008.97 1008.69 1008.25 1007.73 1007.25 1006.77 1006.37 1005.97 1005.61
1016.21 1016.21 1016.21 1016.21 1016.25 1016.21 1016.17 1016.13 1016.05 1015.97 1015.85 1015.77 1015.69 1015.57 1015.49 1015.41 1015.29 1015.25 1015.13 1015.05 1014.97 1014.85 1014.77 1014.65 1014.57 1014.53 1014.41 1014.29 1014.21 1014.13 1014.01 1013.89 1013.73 1013.61 1013.45 1013.29 1013.17 1013.01 1012.89 1012.73 1012.57 1012.41 1012.25 1012.09 1011.93 1011.77 1011.61 1011.41 1011.17 1010.97 1010.77 1010.53 1010.29 1010.13 1010.05 1009.97 1009.85 1009.69 1009.41 1009.09 1008.73 1008.37 1007.93 1007.45 1006.97 1006.41 1005.97 1005.53 1005.09
1016.01 1016.01 1016.01 1016.01 1016.01 1016.01 1015.97 1015.89 1015.81 1015.69 1015.61 1015.49 1015.41 1015.37 1015.25 1015.17 1015.09 1015.05 1014.97 1014.85 1014.81 1014.69 1014.57 1014.45 1014.33 1014.25 1014.21 1014.13 1013.97 1013.85 1013.73 1013.61 1013.49 1013.33 1013.17 1013.01 1012.93 1012.81 1012.65 1012.49 1012.33 1012.17 1012.01 1011.85 1011.69 1011.53 1011.37 1011.17 1010.97 1010.73 1010.53 1010.29 1010.05 1009.85 1009.73 1009.65 1009.53 1009.37 1009.13 1008.81 1008.41 1007.97 1007.53 1007.09 1006.57 1006.13 1005.61 1005.09 1004.57
1015.85 1015.85 1015.85 1015.85 1015.81 1015.77 1015.73 1015.69 1015.53 1015.49 1015.37 1015.25 1015.17 1015.13 1015.05 1014.97 1014.93 1014.85 1014.81 1014.69 1014.57 1014.45 1014.41 1014.29 1014.21 1014.09 1013.97 1013.85 1013.73 1013.61 1013.49 1013.37 1013.21 1013.09 1012.97 1012.81 1012.65 1012.53 1012.41 1012.25 1012.09 1011.93 1011.77 1011.57 1011.41 1011.25 1011.09 1010.93 1010.73 1010.53 1010.29 1010.05 1009.85 1009.61 1009.41 1009.29 1009.17 1008.97 1008.73 1008.41 1008.05 1007.57 1007.13 1006.65 1006.17 1005.69 1005.17 1004.65 1004.17
1015.65 1015.65 1015.65 1015.61 1015.57 1015.53 1015.49 1015.41 1015.37 1015.25 1015.17 1015.05 1014.97 1014.93 1014.85 1014.77 1014.69 1014.65 1014.61 1014.53 1014.41 1014.25 1014.13 1014.09 1013.97 1013.85 1013.65 1013.53 1013.41 1013.33 1013.25 1013.09 1012.97 1012.85 1012.69 1012.57 1012.41 1012.25 1012.13 1011.97 1011.85 1011.69 1011.53 1011.37 1011.21 1010.97 1010.81 1010.61 1010.45 1010.25 1010.01 1009.81 1009.53 1009.33 1009.13 1008.97 1008.81 1008.57 1008.29 1007.97 1007.61 1007.17 1006.69 1006.25 1005.77 1005.25 1004.73 1004.25 1003.73
1015.45 1015.41 1015.41 1015.41 1015.33 1015.29 1015.25 1015.17 1015.13 1015.05 1014.97 1014.89 1014.77 1014.69 1014.65 1014.57 1014.49 1014.41 1014.41 1014.33 1014.17 1014.01 1013.85 1013.73 1013.69 1013.53 1013.41 1013.25 1013.17 1013.09 1012.97 1012.85 1012.69 1012.57 1012.45 1012.29 1012.17 1012.05 1011.89 1011.73 1011.61 1011.45 1011.29 1011.13 1010.97 1010.77 1010.57 1010.33 1010.13 1009.97 1009.77 1009.49 1009.25 1009.01 1008.85 1008.69 1008.41 1008.17 1007.85 1007.53 1007.13 1006.69 1006.25 1005.77 1005.33 1004.85 1004.41 1003.93 1003.45
1015.25 1015.25 1015.21 1015.17 1015.13 1015.05 1014.97 1014.97 1014.89 1014.81 1014.73 1014.65 1014.57 1014.49 1014.41 1014.37 1014.29 1014.21 1014.13 1014.01 1013.89 1013.73 1013.57 1013.41 1013.33 1013.25 1013.17 1013.05 1012.97 1012.85 1012.73 1012.61 1012.45 1012.33 1012.21 1012.09 1011.97 1011.85 1011.69 1011.49 1011.37 1011.21 1011.05 1010.89 1010.69 1010.49 1010.29 1010.13 1009.89 1009.69 1009.41 1009.21 1008.93 1008.69 1008.49 1008.29 1008.05 1007.77 1007.41 1007.09 1006.69 1006.25 1005.77 1005.33 1004.89 1004.53 1004.13 1003.73 1003.37
1015.05 1015.05 1015.01 1014.97 1014.93 1014.85 1014.77 1014.69 1014.65 1014.57 1014.49 1014.41 1014.41 1014.29 1014.21 1014.13 1014.05 1013.97 1013.85 1013.73 1013.61 1013.49 1013.37 1013.21 1013.09 1012.97 1012.89 1012.77 1012.69 1012.57 1012.45 1012.37 1012.25 1012.13 1011.97 1011.85 1011.69 1011.53 1011.41 1011.25 1011.09 1010.93 1010.77 1010.61 1010.41 1010.25 1010.05 1009.85 1009.65 1009.41 1009.13 1008.89 1008.61 1008.37 1008.17 1007.93 1007.69 1007.41 1007.05 1006.69 1006.25 1005.81 1005.37 1004.97 1004.57 1004.21 1003.89 1003.53 1003.21
1014.89 1014.85 1014.81 1014.77 1014.69 1014.65 1014.57 1014.49 1014.41 1014.37 1014.25 1014.25 1014.13 1014.09 1013.97 1013.89 1013.85 1013.69 1013.57 1013.45 1013.33 1013.25 1013.13 1012.97 1012.85 1012.73 1012.61 1012.49 1012.41 1012.25 1012.17 1012.13 1011.97 1011.85 1011.69 1011.53 1011.41 1011.25 1011.13 1010.97 1010.81 1010.65 1010.49 1010.33 1010.13 1009.97 1009.81 1009.65 1009.41 1009.13 1008.85 1008.57 1008.33 1008.13 1007.89 1007.69 1007.41 1007.01 1006.65 1006.29 1005.89 1005.49 1005.09 1004.69 1004.29 1003.93 1003.57 1003.25 1002.93
1014.69 1014.65 1014.61 1014.57 1014.49 1014.41 1014.37 1014.25 1014.25 1014.17 1014.13 1014.05 1013.97 1013.85 1013.77 1013.69 1013.53 1013.45 1013.37 1013.25 1013.13 1012.97 1012.85 1012.69 1012.61 1012.45 1012.33 1012.21 1012.09 1011.97 1011.85 1011.77 1011.69 1011.53 1011.41 1011.25 1011.13 1010.97 1010.85 1010.69 1010.53 1010.37 1010.17 1010.01 1009.85 1009.69 1009.53 1009.41 1009.17 1008.93 1008.61 1008.29 1008.05 1007.85 1007.65 1007.45 1007.13 1006.77 1006.37 1005.97 1005.61 1005.17 1004.77 1004.37 1003.97 1003.57 1003.21 1002.85 1002.57
1014.45 1014.45 1014.41 1014.37 1014.29 1014.25 1014.17 1014.09 1014.01 1013.97 1013.89 1013.81 1013.69 1013.61 1013.53 1013.45 1013.33 1013.21 1013.09 1012.97 1012.85 1012.73 1012.57 1012.45 1012.29 1012.21 1012.09 1011.97 1011.85 1011.73 1011.57 1011.45 1011.33 1011.25 1011.09 1010.97 1010.85 1010.69 1010.53 1010.37 1010.25 1010.09 1009.93 1009.73 1009.57 1009.45 1009.25 1009.05 1008.85 1008.57 1008.29 1007.97 1007.73 1007.53 1007.37 1007.17 1006.93 1006.57 1006.17 1005.73 1005.33 1004.85 1004.41 1003.97 1003.53 1003.17 1002.85 1002.53 1002.21
1014.25 1014.25 1014.25 1014.17 1014.13 1014.05 1013.97 1013.89 1013.85 1013.73 1013.65 1013.53 1013.45 1013.37 1013.25 1013.17 1013.05 1012.97 1012.85 1012.69 1012.61 1012.49 1012.37 1012.21 1012.05 1011.89 1011.81 1011.69 1011.57 1011.45 1011.29 1011.13 1010.97 1010.85 1010.73 1010.61 1010.49 1010.37 1010.21 1010.09 1009.97 1009.81 1009.65 1009.53 1009.37 1009.21 1009.01 1008.77 1008.49 1008.17 1007.89 1007.69 1007.41 1007.25 1007.13 1006.93 1006.69 1006.37 1005.97 1005.57 1005.09 1004.57 1004.01 1003.53 1003.13 1002.77 1002.41 1002.09 1001.81
1014.13 1014.09 1014.01 1013.97 1013.89 1013.81 1013.73 1013.69 1013.57 1013.49 1013.41 1013.33 1013.25 1013.13 1013.05 1012.93 1012.85 1012.69 1012.57 1012.45 1012.33 1012.21 1012.09 1011.93 1011.81 1011.65 1011.49 1011.37 1011.25 1011.13 1010.97 1010.85 1010.69 1010.53 1010.41 1010.25 1010.13 1010.01 1009.89 1009.77 1009.65 1009.53 1009.41 1009.29 1009.13 1008.89 1008.69 1008.45 1008.17 1007.89 1007.61 1007.37 1007.17 1006.97 1006.81 1006.61 1006.41 1006.13 1005.85 1005.41 1004.93 1004.37 1003.77 1003.21 1002.73 1002.41 1002.09 1001.73 1001.41
1013.89 1013.85 1013.81 1013.73 1013.69 1013.61 1013.53 1013.45 1013.33 1013.25 1013.17 1013.13 1013.01 1012.89 1012.81 1012.69 1012.57 1012.45 1012.29 1012.17 1012.05 1011.93 1011.81 1011.69 1011.53 1011.41 1011.25 1011.09 1010.93 1010.77 1010.65 1010.49 1010.37 1010.25 1010.09 1009.97 1009.81 1009.69 1009.57 1009.45 1009.33 1009.25 1009.13 1009.05 1008.85 1008.57 1008.33 1008.09 1007.85 1007.61 1007.37 1007.13 1006.97 1006.77 1006.57 1006.37 1006.13 1005.89 1005.57 1005.21 1004.73 1004.21 1003.65 1003.05 1002.53 1002.13 1001.73 1001.41 1001.05
1013.69 1013.61 1013.57 1013.53 1013.45 1013.37 1013.29 1013.21 1013.13 1013.05 1012.97 1012.85 1012.77 1012.69 1012.57 1012.45 1012.37 1012.21 1012.09 1011.93 1011.81 1011.69 1011.53 1011.41 1011.25 1011.13 1010.97 1010.77 1010.57 1010.45 1010.33 1010.13 1010.05 1009.93 1009.77 1009.65 1009.53 1009.41 1009.25 1009.13 1009.01 1008.97 1008.89 1008.73 1008.53 1008.29 1008.05 1007.81 1007.57 1007.33 1007.13 1006.97 1006.81 1006.65 1006.41 1006.17 1005.89 1005.61 1005.33 1004.97 1004.53 1004.05 1003.53 1002.97 1002.41 1001.93 1001.49 1001.05 1000.69
1013.45 1013.41 1013.37 1013.29 1013.21 1013.13 1013.05 1012.97 1012.89 1012.81 1012.73 1012.65 1012.53 1012.41 1012.33 1012.21 1012.09 1011.97 1011.85 1011.69 1011.53 1011.41 1011.29 1011.13 1010.97 1010.85 1010.69 1010.49 1010.33 1010.17 1010.05 1009.89 1009.77 1009.61 1009.49 1009.33 1009.21 1009.13 1008.97 1008.85 1008.73 1008.69 1008.57 1008.41 1008.21 1008.01 1007.81 1007.57 1007.33 1007.09 1006.85 1006.73 1006.61 1006.49 1006.29 1006.05 1005.77 1005.49 1005.13 1004.77 1004.29 1003.85 1003.33 1002.85 1002.33 1001.85 1001.33 1000.85 1000.45
1013.25 1013.21 1013.13 1013.09 1012.97 1012.89 1012.85 1012.77 1012.69 1012.57 1012.53 1012.41 1012.29 1012.21 1012.09 1011.97 1011.85 1011.73 1011.57 1011.45 1011.29 1011.17 1011.01 1010.89 1010.73 1010.57 1010.41 1010.25 1010.09 1009.93 1009.77 1009.61 1009.45 1009.33 1009.17 1009.05 1008.93 1008.85 1008.69 1008.61 1008.49 1008.37 1008.25 1008.13 1007.97 1007.77 1007.57 1007.37 1007.13 1006.85 1006.65 1006.49 1006.41 1006.33 1006.13 1005.93 1005.65 1005.33 1004.97 1004.61 1004.13 1003.69 1003.21 1002.73 1002.25 1001.77 1001.33 1000.85 1000.41
1013.05 1012.97 1012.93 1012.85 1012.77 1012.69 1012.61 1012.53 1012.41 1012.37 1012.25 1012.17 1012.09 1011.97 1011.85 1011.73 1011.65 1011.49 1011.37 1011.21 1011.09 1010.97 1010.85 1010.69 1010.53 1010.37 1010.21 1010.01 1009.85 1009.69 1009.49 1009.25 1009.13 1009.01 1008.89 1008.81 1008.69 1008.57 1008.45 1008.33 1008.25 1008.13 1007.97 1007.85 1007.69 1007.53 1007.33 1007.13 1006.89 1006.65 1006.41 1006.25 1006.21 1006.13 1005.93 1005.69 1005.45 1005.17 1004.81 1004.41 1003.97 1003.53 1003.09 1002.61 1002.13 1001.69 1001.29 1000.97 1000.57
1012.85 1012.77 1012.69 1012.61 1012.53 1012.41 1012.37 1012.29 1012.25 1012.13 1012.05 1011.97 1011.85 1011.77 1011.65 1011.53 1011.41 1011.29 1011.17 1011.01 1010.89 1010.77 1010.65 1010.49 1010.33 1010.13 1009.97 1009.77 1009.57 1009.41 1009.21 1009.01 1008.89 1008.81 1008.69 1008.57 1008.45 1008.33 1008.21 1008.09 1007.97 1007.85 1007.77 1007.65 1007.49 1007.29 1007.13 1006.85 1006.65 1006.41 1006.21 1006.01 1005.97 1005.89 1005.73 1005.53 1005.25 1004.97 1004.65 1004.21 1003.77 1003.33 1002.93 1002.49 1001.97 1001.57 1001.29 1001.05 1000.69
1012.65 1012.57 1012.49 1012.41 1012.29 1012.21 1012.13 1012.09 1012.01 1011.97 1011.85 1011.77 1011.69 1011.53 1011.45 1011.37 1011.25 1011.13 1010.97 1010.89 1010.73 1010.57 1010.41 1010.25 1010.05 1009.85 1009.69 1009.49 1009.29 1009.13 1008.97 1008.85 1008.73 1008.61 1008.53 1008.41 1008.25 1008.09 1007.93 1007.81 1007.69 1007.61 1007.53 1007.41 1007.25 1007.05 1006.85 1006.65 1006.41 1006.21 1006.01 1005.85 1005.73 1005.69 1005.53 1005.33 1005.09 1004.77 1004.41 1003.97 1003.53 1003.17 1002.77 1002.37 1001.93 1001.53 1001.29 1001.09 1000.77
1012.41 1012.33 1012.25 1012.17 1012.09 1012.01 1011.93 1011.89 1011.81 1011.73 1011.69 1011.57 1011.49 1011.37 1011.25 1011.13 1011.05 1010.93 1010.81 1010.69 1010.57 1010.41 1010.17 1009.97 1009.81 1009.65 1009.45 1009.25 1009.09 1008.93 1008.77 1008.65 1008.53 1008.41 1008.29 1008.13 1008.01 1007.85 1007.69 1007.57 1007.49 1007.41 1007.25 1007.13 1006.97 1006.77 1006.57 1006.41 1006.21 1006.05 1005.85 1005.61 1005.53 1005.45 1005.29 1005.09 1004.85 1004.53 1004.13 1003.77 1003.33 1002.93 1002.53 1002.13 1001.77 1001.53 1001.29 1001.05 1000.77
1012.17 1012.13 1012.05 1011.97 1011.89 1011.85 1011.77 1011.69 1011.61 1011.53 1011.49 1011.41 1011.29 1011.21 1011.09 1010.97 1010.85 1010.69 1010.57 1010.45 1010.33 1010.17 1009.97 1009.81 1009.65 1009.49 1009.29 1009.13 1008.97 1008.77 1008.61 1008.45 1008.33 1008.21 1008.09 1007.93 1007.81 1007.65 1007.49 1007.37 1007.29 1007.21 1007.05 1006.89 1006.69 1006.53 1006.37 1006.21 1006.01 1005.85 1005.65 1005.45 1005.33 1005.21 1005.05 1004.85 1004.57 1004.25 1003.93 1003.53 1003.09 1002.69 1002.33 1001.93 1001.65 1001.41 1001.25 1000.97 1000.69
1011.97 1011.89 1011.85 1011.77 1011.73 1011.69 1011.61 1011.53 1011.45 1011.41 1011.29 1011.21 1011.09 1010.97 1010.93 1010.85 1010.69 1010.57 1010.41 1010.25 1010.13 1009.97 1009.77 1009.61 1009.49 1009.29 1009.13 1008.97 1008.81 1008.65 1008.45 1008.25 1008.13 1007.97 1007.89 1007.73 1007.61 1007.45 1007.25 1007.13 1007.05 1006.97 1006.81 1006.65 1006.49 1006.33 1006.17 1006.01 1005.85 1005.69 1005.45 1005.25 1005.13 1004.97 1004.81 1004.57 1004.33 1004.05 1003.69 1003.25 1002.85 1002.41 1002.05 1001.73 1001.53 1001.33 1001.13 1000.89 1000.65
1011.77 1011.69 1011.69 1011.61 1011.57 1011.53 1011.45 1011.37 1011.29 1011.21 1011.13 1011.01 1010.89 1010.81 1010.69 1010.65 1010.49 1010.37 1010.25 1010.09 1009.93 1009.73 1009.57 1009.45 1009.29 1009.13 1008.93 1008.77 1008.61 1008.45 1008.29 1008.13 1007.93 1007.77 1007.65 1007.53 1007.41 1007.25 1007.09 1006.93 1006.81 1006.69 1006.57 1006.41 1006.29 1006.13 1005.97 1005.85 1005.69 1005.49 1005.29 1005.13 1004.93 1004.69 1004.57 1004.33 1004.13 1003.85 1003.49 1003.09 1002.61 1002.21 1001.85 1001.57 1001.41 1001.21 1001.01 1000.81 1000.57
1011.61 1011.57 1011.53 1011.45 1011.41 1011.37 1011.29 1011.25 1011.13 1011.05 1010.97 1010.85 1010.73 1010.65 1010.57 1010.45 1010.29 1010.17 1010.09 1009.97 1009.77 1009.57 1009.41 1009.25 1009.09 1008.89 1008.73 1008.57 1008.41 1008.25 1008.13 1007.97 1007.81 1007.65 1007.45 1007.37 1007.25 1007.09 1006.89 1006.69 1006.57 1006.45 1006.37 1006.25 1006.13 1005.97 1005.81 1005.69 1005.49 1005.33 1005.13 1004.93 1004.69 1004.49 1004.33 1004.13 1003.93 1003.65 1003.29 1002.89 1002.45 1002.05 1001.69 1001.49 1001.29 1001.13 1000.89 1000.69 1000.41
1011.45 1011.41 1011.41 1011.33 1011.25 1011.21 1011.13 1011.09 1010.97 1010.89 1010.77 1010.69 1010.61 1010.49 1010.41 1010.25 1010.13 1010.01 1009.89 1009.81 1009.61 1009.41 1009.21 1009.01 1008.85 1008.69 1008.57 1008.41 1008.25 1008.09 1007.93 1007.85 1007.69 1007.53 1007.37 1007.17 1007.05 1006.89 1006.73 1006.53 1006.37 1006.25 1006.17 1006.09 1005.93 1005.77 1005.61 1005.45 1005.29 1005.13 1004.97 1004.77 1004.53 1004.33 1004.13 1003.97 1003.77 1003.53 1003.17 1002.77 1002.33 1001.93 1001.65 1001.45 1001.25 1001.05 1000.81 1000.57 1000.25
1011.29 1011.29 1011.25 1011.21 1011.13 1011.05 1010.97 1010.89 1010.81 1010.69 1010.61 1010.53 1010.41 1010.33 1010.21 1010.13 1009.97 1009.85 1009.73 1009.61 1009.45 1009.25 1009.05 1008.85 1008.69 1008.53 1008.41 1008.25 1008.05 1007.89 1007.73 1007.61 1007.49 1007.37 1007.21 1007.01 1006.85 1006.69 1006.57 1006.41 1006.17 1006.05 1005.97 1005.85 1005.69 1005.53 1005.41 1005.29 1005.13 1004.97 1004.77 1004.61 1004.41 1004.21 1004.01 1003.85 1003.61 1003.33 1002.97 1002.65 1002.25 1001.85 1001.57 1001.41 1001.25 1000.97 1000.69 1000.37 1000.09
1011.21 1011.17 1011.13 1011.05 1010.97 1010.89 1010.81 1010.69 1010.65 1010.57 1010.49 1010.41 1010.25 1010.13 1010.05 1009.93 1009.81 1009.69 1009.53 1009.41 1009.25 1009.09 1008.89 1008.69 1008.53 1008.37 1008.25 1008.09 1007.93 1007.69 1007.53 1007.41 1007.29 1007.17 1007.01 1006.85 1006.69 1006.53 1006.37 1006.21 1006.01 1005.85 1005.69 1005.61 1005.49 1005.37 1005.25 1005.13 1004.97 1004.77 1004.61 1004.41 1004.25 1004.05 1003.85 1003.69 1003.41 1003.13 1002.85 1002.53 1002.17 1001.85 1001.53 1001.37 1001.17 1000.93 1000.61 1000.25 999.93
1011.05 1011.01 1010.97 1010.89 1010.81 1010.73 1010.65 1010.57 1010.45 1010.41 1010.37 1010.25 1010.13 1010.01 1009.89 1009.77 1009.61 1009.49 1009.37 1009.17 1009.05 1008.89 1008.73 1008.57 1008.37 1008.21 1008.09 1007.97 1007.81 1007.57 1007.37 1007.21 1007.05 1006.93 1006.81 1006.65 1006.45 1006.33 1006.17 1006.01 1005.85 1005.69 1005.53 1005.41 1005.25 1005.13 1005.01 1004.93 1004.77 1004.61 1004.41 1004.25 1004.09 1003.89 1003.69 1003.53 1003.29 1003.01 1002.69 1002.41 1002.13 1001.85 1001.61 1001.33 1001.09 1000.81 1000.57 1000.25 999.85
Wind_Speed
7 7 7 7 6 6 6 6 6 6 6 6 7 7 7 8 8 8 8 8 8 8 8 8 9 9 11 14 15 16 16 16 17 17 18 18 18 18 18 18 17 17 18 18 18 17 16 16 15 12 10 10 10 10 11 10 12 14 16 17 15 16 17 18 18 17 17 17 13
8 8 8 8 7 7 6 6 6 6 6 6 7 7 8 8 8 8 8 9 8 8 9 9 9 11 13 15 15 16 16 16 18 18 18 18 18 18 18 17 17 17 17 17 17 16 14 15 14 12 10 9 10 10 11 11 12 14 17 20 17 15 14 15 14 14 15 14 13
8 8 8 8 8 7 7 6 7 7 8 8 7 8 8 8 8 8 8 9 9 10 9 9 9 11 13 15 15 15 15 16 17 17 17 17 18 18 18 17 18 18 17 17 16 15 15 16 14 12 11 10 10 11 12 13 13 15 16 18 15 13 12 11 11 11 11 10 13
9 9 9 9 10 10 9 7 8 9 9 8 8 8 8 8 8 8 9 10 11 10 10 9 9 9 11 13 15 15 16 16 17 18 18 17 18 19 19 19 19 19 18 17 17 17 17 17 14 12 11 11 12 12 12 12 13 14 13 13 12 11 10 9 9 9 9 10 12
9 9 9 9 10 10 9 8 10 10 9 8 8 8 8 8 8 8 9 9 9 10 11 11 9 9 10 12 15 16 17 17 17 17 16 17 18 18 19 20 20 19 18 18 18 18 18 18 14 11 11 11 11 11 12 14 14 14 12 10 10 10 10 9 9 9 9 10 11
9 9 9 9 10 10 9 9 10 10 9 8 9 10 9 8 8 9 10 10 11 12 13 13 11 10 11 14 15 16 16 16 16 16 16 17 17 18 19 20 19 18 18 18 19 19 18 17 13 11 10 10 10 12 14 15 14 14 12 11 10 10 10 11 10 10 11 12 14
9 9 10 10 10 10 9 9 10 10 10 9 11 12 12 11 11 12 13 13 12 12 12 10 10 11 12 14 14 15 15 15 15 16 17 17 17 18 18 18 19 19 19 18 19 18 17 15 12 11 11 10 10 12 14 15 14 14 14 13 12 11 11 13 11 11 13 16 19
9 9 10 10 10 10 11 11 10 10 10 10 11 13 14 14 14 15 15 14 12 11 10 9 11 13 14 14 13 14 14 15 16 16 16 17 18 18 18 18 18 19 19 18 18 18 17 15 12 11 11 10 9 10 13 16 17 17 17 17 15 13 12 12 12 12 14 18 20
8 9 9 10 10 11 11 11 11 11 11 12 13 14 15 15 15 15 14 13 12 11 10 9 12 14 15 15 14 13 13 13 14 15 16 16 17 17 17 17 17 18 18 17 17 18 18 14 12 11 11 9 10 11 13 16 18 19 19 17 16 16 15 14 14 15 16 18 21
9 9 9 10 10 11 11 11 12 12 13 13 14 15 15 15 15 14 13 11 10 11 11 11 13 14 14 14 14 13 13 13 13 14 15 16 16 16 16 16 16 17 17 17 16 17 17 14 13 13 13 12 13 14 16 17 18 19 19 15 16 19 20 19 19 19 19 19 21
10 9 9 9 10 11 11 12 12 12 12 13 14 14 14 14 14 13 12 10 11 13 14 13 13 13 13 13 13 13 13 13 13 14 15 16 16 16 16 16 17 17 17 17 16 15 14 13 14 15 16 15 15 15 16 17 18 19 19 17 19 21 23 23 22 20 19 19 21
10 10 10 9 10 10 11 11 11 11 12 13 13 14 14 13 14 13 13 12 14 14 14 13 13 13 13 12 12 13 13 14 14 15 16 16 17 17 17 17 17 18 18 18 16 14 12 13 14 16 18 18 15 14 14 16 18 19 20 20 21 22 23 24 24 21 19 18 20
10 10 10 10 10 11 11 11 10 11 11 13 13 12 12 12 13 13 13 14 14 13 12 12 13 12 12 12 12 12 13 14 15 16 16 16 17 17 17 17 17 18 17 17 15 14 13 14 16 17 18 19 16 15 15 16 17 19 20 21 22 22 23 24 24 23 21 21 20
11 10 10 10 10 11 11 11 10 10 11 12 12 12 12 12 12 12 12 13 13 13 13 13 12 12 12 13 13 14 14 15 16 16 17 17 17 17 17 17 17 17 16 15 15 15 15 15 17 18 19 19 18 17 17 16 17 18 20 21 22 23 23 24 24 23 23 22 21
11 11 11 11 11 10 10 11 10 10 11 12 12 11 11 11 11 11 11 12 13 13 13 13 12 12 13 14 15 15 15 16 16 17 17 17 18 18 17 17 18 17 17 16 15 16 16 17 18 18 18 19 19 19 18 17 17 18 19 21 22 23 24 24 24 23 23 23 22
11 11 11 11 11 11 10 10 10 10 11 11 12 12 11 11 10 10 11 12 12 12 13 13 13 13 14 15 15 16 15 15 16 16 17 17 17 18 18 18 18 18 18 17 17 17 17 17 17 17 18 19 19 19 18 17 18 19 20 21 22 23 24 24 24 24 23 23 23
11 11 11 11 11 12 12 11 10 10 11 12 13 13 12 11 10 10 10 11 11 12 13 13 13 14 15 15 15 15 15 15 15 15 16 16 17 18 18 18 18 18 18 18 17 18 18 18 17 17 18 18 19 18 18 18 18 19 20 21 22 23 23 24 24 23 23 23 22
11 11 11 11 12 12 13 13 12 12 13 13 13 13 12 12 11 11 11 12 13 14 14 15 14 14 15 16 16 15 14 14 15 15 16 16 17 17 18 18 18 18 18 17 17 18 18 19 18 18 17 18 18 18 18 18 19 19 21 22 22 23 23 23 23 22 21 20 20
11 11 12 12 13 13 13 13 13 13 13 13 13 13 13 14 13 13 13 13 15 16 16 16 15 14 15 16 16 15 15 15 16 16 17 17 17 17 18 18 18 18 18 17 17 18 18 18 18 18 18 18 18 18 18 18 19 19 20 21 22 23 23 23 23 22 20 19 19
11 12 12 12 13 13 14 14 14 14 14 13 13 14 15 15 15 15 15 15 16 16 17 16 15 15 15 16 16 16 15 14 15 16 17 17 17 17 18 18 18 18 17 17 17 17 17 17 17 18 18 19 19 18 18 19 19 20 20 20 21 22 23 24 23 22 21 20 19
11 12 12 12 13 13 14 14 14 14 14 14 14 15 15 15 16 16 16 16 17 17 17 16 16 16 16 16 16 16 15 14 15 16 16 16 17 17 17 17 17 17 16 16 17 17 17 16 17 18 18 18 18 18 18 18 19 20 20 20 21 22 24 24 24 23 22 20 20
11 12 12 13 13 13 14 14 14 14 14 15 15 15 15 15 16 16 16 16 16 17 17 17 16 16 16 16 16 16 16 14 15 15 15 15 16 16 16 16 16 17 17 17 16 16 16 16 17 18 18 17 17 17 17 18 18 19 20 21 23 24 25 25 23 22 21 20 19
12 12 12 12 13 13 14 14 14 14 14 15 15 15 15 15 16 16 17 16 16 16 17 16 16 16 16 15 16 16 16 16 16 16 16 15 15 15 15 15 16 16 16 15 14 14 15 15 16 17 17 16 16 16 17 17 18 18 20 22 24 25 25 25 23 22 20 19 18
12 12 11 11 12 13 14 14 14 14 15 15 15 15 15 15 16 16 16 16 16 17 16 15 15 15 16 16 16 16 16 17 16 16 16 16 15 15 15 14 14 14 14 12 13 15 16 15 14 15 15 14 14 14 15 16 17 18 20 22 24 25 25 24 23 22 20 19 18
12 12 12 12 13 13 14 14 14 14 15 15 15 15 15 16 16 16 16 16 17 17 17 17 16 16 16 16 15 15 15 16 16 16 16 16 15 15 14 13 13 12 11 11 16 21 23 21 18 16 14 12 12 13 14 15 17 18 19 21 22 23 24 24 23 22 21 20 18
12 13 13 13 13 14 14 14 14 14 15 15 15 15 15 16 15 16 16 16 17 17 17 17 16 15 15 15 15 15 14 13 14 14 15 15 15 15 15 13 11 10 10 12 19 24 26 27 26 22 17 12 12 13 14 15 17 18 20 21 22 22 23 23 23 22 21 20 19
12 13 13 13 13 14 14 14 14 14 15 15 15 15 15 15 15 16 16 17 17 17 16 15 15 15 14 14 15 15 14 13 13 14 15 15 15 16 15 14 12 10 11 16 22 25 27 27 28 26 22 15 13 13 13 14 16 18 19 20 20 21 22 23 23 22 21 20 18
12 13 13 13 14 14 14 14 14 14 15 15 15 15 15 16 16 17 17 17 17 16 15 14 13 13 12 12 14 15 15 15 14 13 13 14 15 15 15 14 13 12 14 20 24 26 27 27 28 27 25 20 14 13 13 15 16 16 17 17 18 20 21 21 20 19 19 19 17
13 13 13 14 14 14 14 14 14 14 15 15 15 15 16 16 16 17 17 17 17 16 15 13 12 11 11 13 14 16 17 17 15 13 13 13 14 15 15 16 15 16 18 22 25 26 26 27 27 27 26 24 16 12 11 12 13 14 15 15 16 17 18 19 18 17 17 17 16
13 13 13 14 14 14 14 14 14 14 14 14 15 15 16 16 16 17 17 18 17 16 15 13 13 14 15 16 16 16 16 16 15 14 13 14 15 15 16 16 16 16 18 22 24 25 26 26 27 27 27 26 19 14 11 12 13 14 14 14 16 18 19 20 19 18 17 17 17
13 13 13 14 14 14 14 14 14 14 14 14 15 15 16 16 17 17 17 17 17 16 16 16 17 18 18 18 17 17 17 16 16 15 14 14 16 17 17 18 17 17 18 22 24 25 26 26 27 27 27 26 20 14 11 12 13 14 14 15 17 19 20 19 17 16 17 19 19
13 13 13 14 14 14 14 14 14 14 15 15 16 16 16 17 17 17 17 16 16 17 18 18 18 19 19 19 18 18 18 17 16 15 15 15 16 17 17 17 17 17 18 22 24 25 26 26 26 26 26 26 20 15 13 14 14 14 15 17 19 21 20 17 15 15 18 19 19
13 13 13 13 14 14 14 14 14 15 15 15 16 16 16 17 16 16 16 16 16 17 17 18 18 18 18 18 18 18 18 17 16 16 16 17 18 18 18 17 15 15 18 22 24 25 26 26 26 26 26 26 19 15 13 14 13 14 15 17 18 20 20 19 16 15 17 18 18
13 13 13 13 14 14 14 14 14 15 15 15 16 16 16 16 17 17 16 16 15 16 16 17 17 17 18 18 18 18 18 16 16 16 17 18 18 19 18 15 12 13 18 23 25 25 26 26 26 26 26 25 18 14 13 14 14 14 16 18 19 19 19 17 15 15 16 17 17
13 13 13 13 13 14 14 14 15 15 15 16 16 16 16 16 17 17 17 17 16 16 16 16 17 17 17 17 17 17 18 18 17 17 17 17 18 18 18 17 15 17 21 24 25 25 25 25 25 25 25 21 15 12 12 14 15 16 18 20 20 20 18 15 14 14 15 16 17
12 13 13 13 14 14 14 15 15 15 16 16 16 16 16 16 16 16 16 17 17 17 17 17 17 17 17 17 17 16 17 18 18 18 18 18 18 18 19 18 18 19 22 24 24 25 25 25 25 25 23 18 12 11 11 12 13 15 18 20 20 19 17 14 13 14 14 15 16
12 12 13 13 14 14 15 15 15 16 16 16 16 16 17 17 16 16 16 16 16 17 17 17 17 17 17 17 17 17 17 17 18 18 18 18 18 18 18 18 18 19 20 22 23 24 24 24 24 24 21 16 12 11 11 11 11 13 16 18 19 17 15 12 13 13 14 15 17
12 12 13 14 14 14 15 15 15 16 16 16 16 16 16 16 16 15 15 15 15 16 17 17 17 17 17 17 17 17 18 18 18 18 18 18 17 18 18 19 18 17 18 20 22 23 23 23 23 23 20 16 13 11 10 10 11 12 14 15 15 14 13 12 11 12 14 16 20
12 12 13 14 14 15 15 15 16 16 16 16 16 16 16 16 15 15 15 14 15 16 16 17 17 17 17 18 17 17 18 18 18 18 18 18 18 18 19 19 18 17 17 19 21 22 22 22 22 22 21 16 12 10 9 9 11 12 13 14 13 12 12 12 11 11 13 16 21
12 12 13 14 14 14 15 15 16 16 15 15 16 16 16 16 15 15 15 14 15 15 16 16 18 18 18 18 17 17 18 18 18 18 18 18 18 19 19 18 17 17 18 19 20 21 21 20 21 21 20 15 12 9 8 8 10 12 12 12 11 11 11 12 12 11 12 14 18
12 12 13 14 14 14 15 16 16 15 15 15 16 16 15 15 15 15 15 14 15 15 15 15 17 18 18 18 16 17 17 18 18 18 18 18 18 18 17 16 17 17 17 17 18 19 19 19 20 21 20 15 11 9 8 8 10 11 12 12 11 10 11 12 12 12 12 13 14
Wind_Direction
283 282 283 285 287 288 288 287 286 285 286 287 290 292 294 295 296 296 297 297 297 297 298 298 298 299 300 301 303 304 306 306 306 305 303 302 301 302 302 303 303 304 304 304 304 303 302 301 300 298 295 293 292 290 289 285 284 282 280 278 274 272 272 275 273 270 266 263 262
280 281 283 285 284 283 282 283 284 285 287 290 292 295 296 296 296 296 296 295 295 295 296 295 296 297 299 302 305 306 306 305 304 303 302 301 301 302 303 304 304 304 304 304 304 303 302 301 300 297 294 292 290 288 287 285 283 281 279 278 276 276 277 277 274 270 267 264 261
281 281 281 280 281 283 285 288 291 293 294 295 296 296 296 295 294 294 293 293 293 293 293 293 294 297 301 303 304 304 303 303 303 303 303 303 303 304 305 305 305 304 304 304 304 303 301 301 298 295 292 290 288 287 286 285 283 281 279 279 279 281 283 280 277 274 270 266 262
279 280 281 282 286 289 292 295 296 297 297 297 296 294 292 291 290 290 290 290 290 290 290 292 293 297 300 302 301 301 301 302 303 304 304 305 305 305 305 304 304 304 305 305 303 302 300 299 296 293 289 287 286 286 285 285 283 282 281 282 284 285 286 282 280 277 273 268 264
284 285 287 289 291 293 295 296 296 295 295 295 293 291 289 287 286 286 287 287 289 290 292 295 296 297 298 298 299 301 302 304 304 304 304 304 304 304 303 303 304 304 304 303 302 300 298 298 294 290 287 286 285 284 283 283 282 282 282 284 287 288 288 286 283 278 274 270 267
286 286 287 288 290 292 292 292 292 292 292 290 287 286 285 285 286 288 289 291 292 293 295 296 297 297 297 298 299 301 302 303 303 303 302 302 302 302 302 303 303 303 302 301 300 298 297 296 292 289 286 285 283 282 282 282 283 284 285 287 288 288 287 284 281 278 275 273 272
282 283 284 285 287 288 288 288 288 287 286 284 283 284 285 286 288 290 292 293 293 294 295 296 296 296 297 298 298 298 299 300 300 300 301 301 301 302 302 303 302 301 299 298 298 297 296 295 292 289 288 287 285 283 283 283 286 289 290 292 292 290 286 283 280 278 276 275 275
280 281 283 284 284 284 284 284 283 283 283 282 283 286 287 289 290 291 292 292 292 293 294 294 294 294 294 295 294 295 295 296 297 298 299 300 301 301 301 300 299 298 297 297 297 296 296 295 292 290 289 289 285 284 285 288 292 294 295 295 295 292 289 284 281 279 278 278 278
281 282 282 282 281 281 281 282 282 283 283 284 285 287 289 290 291 291 291 291 291 292 292 290 290 291 291 292 292 293 293 294 295 296 297 298 299 299 298 297 297 297 296 296 296 297 296 295 292 290 289 287 285 285 288 292 295 297 297 296 296 295 292 288 285 283 281 280 278
282 281 280 280 280 281 282 283 283 283 284 285 286 288 289 290 290 290 290 290 290 290 289 288 289 290 291 292 292 292 292 292 292 294 295 296 296 296 296 296 296 296 296 297 297 297 297 295 293 291 289 286 286 287 290 294 297 299 299 298 297 297 295 291 288 284 281 277 275
280 279 278 278 279 280 282 283 283 283 284 285 287 287 288 289 288 288 288 289 288 288 288 288 290 291 291 291 291 291 291 291 292 294 295 296 296 296 296 296 296 296 296 297 297 297 296 294 292 291 290 289 289 290 293 297 299 300 299 297 296 296 295 292 289 284 279 275 273
279 278 276 276 278 279 280 281 281 282 284 285 286 286 287 287 287 287 287 287 288 288 289 291 291 291 290 289 289 290 290 291 293 294 295 296 296 297 297 296 296 297 297 297 298 297 295 293 292 291 291 291 292 293 296 298 299 299 298 296 295 294 293 290 287 284 279 276 274
279 278 278 277 278 278 279 280 281 282 283 283 284 285 285 285 286 287 288 289 290 291 291 291 290 289 288 288 289 291 292 292 293 294 295 296 297 297 298 298 298 298 298 298 298 297 295 293 293 293 293 294 294 294 295 297 298 298 296 295 294 292 290 288 286 283 281 278 277
278 278 278 278 278 279 279 280 281 281 282 283 283 284 285 286 288 289 289 290 290 290 290 290 289 289 289 291 292 292 292 292 293 294 295 296 297 298 299 299 299 299 299 299 299 298 296 295 295 295 295 295 295 295 296 296 297 296 295 293 292 291 288 286 285 284 283 281 279
277 277 277 277 278 278 278 279 280 281 282 283 284 286 287 288 289 289 289 289 288 289 289 290 290 290 291 291 291 291 292 292 293 294 296 297 298 299 299 299 300 300 300 300 299 298 297 296 296 296 296 295 295 295 295 295 295 294 293 291 290 289 288 287 286 286 285 284 282
276 276 276 277 277 277 278 279 280 281 283 284 286 288 289 289 289 289 288 287 287 287 288 288 288 289 289 289 290 291 292 293 294 295 296 297 299 299 300 300 300 301 300 300 300 299 299 298 297 296 296 295 295 295 294 294 294 293 292 290 289 288 287 287 287 287 286 285 285
275 276 276 277 277 278 278 279 280 282 284 286 287 288 289 289 288 287 286 285 286 286 285 284 284 286 288 290 292 293 294 294 294 295 296 297 299 300 300 300 300 300 300 300 300 300 300 299 298 297 295 294 293 293 294 294 294 293 292 290 289 288 288 288 288 288 287 287 287
275 276 277 278 278 279 280 280 281 283 284 286 287 288 289 289 289 288 286 285 285 285 285 284 284 286 289 292 293 294 295 294 295 296 297 298 299 300 300 299 299 299 300 300 300 300 300 300 299 297 295 293 293 293 293 294 294 293 292 291 291 290 290 290 290 289 289 288 289
275 277 277 278 279 280 281 282 283 284 285 286 288 289 289 290 290 289 288 287 288 288 288 289 289 289 290 292 292 293 294 295 295 296 297 298 298 298 298 298 298 299 299 300 300 300 300 300 299 297 295 294 294 294 295 296 296 295 294 294 294 294 294 294 293 292 291 289 289
275 276 277 278 279 281 282 283 285 286 287 288 289 290 290 290 290 290 290 290 291 291 292 292 292 292 292 292 292 293 294 295 296 296 297 297 297 297 296 296 297 298 299 300 300 300 300 299 298 296 295 294 295 296 298 299 298 297 296 296 296 296 297 297 296 294 293 290 289
275 276 277 278 280 281 283 285 286 288 289 289 290 290 290 291 291 291 292 292 293 294 294 294 293 293 293 293 294 294 294 294 295 295 295 295 294 294 294 295 296 297 298 299 300 300 300 299 297 296 294 294 296 298 300 301 300 299 299 298 298 298 298 297 296 295 293 290 289
275 276 278 279 281 282 284 285 287 288 289 290 290 291 291 292 292 293 293 294 295 295 295 294 294 294 294 294 295 295 294 293 293 292 292 292 292 292 292 293 295 297 298 300 300 301 300 298 296 295 294 294 297 300 302 302 301 300 300 300 300 300 299 297 296 294 291 289 288
276 278 279 280 281 283 284 286 287 288 289 290 291 291 292 293 293 294 295 295 295 295 295 295 295 295 295 294 294 293 292 291 290 290 289 290 290 290 291 293 295 297 299 300 300 300 299 297 295 294 294 295 299 302 304 304 302 302 302 302 302 300 299 297 296 294 292 289 288
277 278 279 280 282 283 285 286 287 289 290 290 292 293 293 294 294 295 295 296 296 296 296 296 296 295 295 293 292 290 289 289 289 289 289 290 290 291 291 292 294 296 298 299 300 300 300 297 296 296 297 299 303 305 306 305 304 303 303 303 302 301 300 298 297 296 294 293 290
278 279 280 281 282 284 285 287 288 289 290 292 293 294 294 295 295 296 296 296 296 297 297 297 297 296 295 294 291 289 288 287 288 289 291 292 291 291 291 292 294 296 298 297 299 299 300 300 300 301 302 305 307 308 307 305 305 304 304 302 302 301 300 300 299 299 298 295 292
279 280 281 282 283 285 286 287 289 290 292 293 294 295 295 296 296 296 297 297 298 298 299 299 298 297 295 294 292 290 289 288 289 290 291 292 292 292 293 294 297 297 297 297 299 300 301 302 304 305 307 308 311 310 309 307 306 305 304 302 301 300 300 301 301 301 300 296 292
279 280 281 283 284 285 287 289 290 292 293 294 294 295 295 297 297 297 298 298 299 299 300 299 298 297 295 294 294 293 293 293 292 292 292 292 293 294 296 297 298 298 297 298 300 301 303 305 306 308 309 311 312 311 309 307 306 305 304 302 301 300 300 301 301 301 301 298 293
280 281 282 284 285 286 288 290 291 292 293 294 295 296 297 298 298 298 299 299 300 300 300 299 298 297 296 296 296 296 296 296 294 293 292 292 294 296 298 300 300 299 299 300 302 303 305 306 308 309 311 314 313 310 308 306 306 305 303 301 300 299 300 300 301 302 303 304 301
280 282 283 284 285 287 289 290 292 293 294 295 296 297 298 299 299 299 299 300 300 301 300 300 300 299 298 297 297 297 297 296 295 294 293 294 296 298 299 300 300 300 300 302 303 304 305 307 308 309 312 316 314 311 308 305 304 303 302 299 298 299 299 301 301 304 309 314 314
281 282 284 285 286 288 290 291 293 294 296 296 298 299 299 299 300 300 300 300 301 301 301 301 300 299 298 297 297 297 297 297 297 297 297 298 299 299 299 300 300 300 301 303 303 304 305 306 308 309 312 316 315 312 307 304 303 302 300 297 297 298 299 299 301 306 315 324 322
282 283 284 285 287 289 290 292 294 295 297 298 299 300 300 300 300 301 301 301 301 301 301 300 299 298 298 297 297 297 298 298 299 299 299 299 299 299 299 299 300 300 301 303 303 304 305 306 308 310 313 316 316 314 309 305 302 300 299 297 298 299 300 298 301 310 321 325 323
282 283 284 286 287 290 292 294 296 297 298 299 300 300 300 300 301 301 301 301 301 300 300 299 299 299 299 299 299 299 299 300 300 300 300 299 299 299 299 299 301 301 302 303 303 304 305 307 309 311 313 316 315 313 309 304 302 300 298 298 299 299 299 298 303 315 322 324 322
282 283 285 286 289 291 293 295 297 298 299 300 300 300 300 301 301 301 301 301 300 300 300 300 300 300 300 300 300 300 300 300 300 300 299 299 299 300 300 300 301 301 302 302 303 305 306 308 310 312 313 316 315 312 308 304 302 301 300 300 300 300 299 299 306 316 322 322 320
282 284 286 288 291 293 295 297 298 299 300 300 300 300 301 301 301 301 301 301 300 300 300 299 300 300 300 300 300 300 301 301 300 300 300 300 300 301 301 301 300 300 301 302 304 306 307 309 311 312 313 315 314 311 307 305 303 303 303 302 301 300 299 301 311 319 322 321 319
284 286 288 290 292 294 296 298 299 299 300 300 300 300 301 301 301 301 301 301 301 300 299 299 299 299 299 299 299 299 300 301 301 301 301 301 301 301 301 301 299 300 302 304 305 307 308 309 310 311 313 314 313 310 307 306 305 305 305 304 303 301 301 304 315 321 322 320 318
286 288 290 292 294 296 297 298 299 299 299 299 300 301 301 301 301 301 301 302 301 300 300 299 299 299 299 299 299 300 300 301 302 302 302 302 302 301 301 301 301 302 304 305 306 307 307 308 309 311 312 313 311 309 307 307 306 306 305 305 304 303 304 311 320 323 322 320 318
288 290 292 294 295 296 297 298 298 299 299 299 300 301 301 301 301 301 302 302 301 301 300 300 299 299 300 300 301 301 301 302 302 303 302 302 301 301 301 301 302 302 304 305 305 305 306 307 309 310 311 311 310 309 308 307 306 305 305 305 304 304 308 317 323 323 321 318 317
289 291 293 294 295 296 297 297 298 298 299 299 300 301 301 301 301 301 302 302 301 300 300 300 300 300 301 302 301 301 301 302 302 302 302 301 301 301 301 302 302 302 303 304 304 304 305 306 308 310 311 311 310 309 307 306 305 304 304 304 303 307 314 324 325 322 319 317 316
291 292 293 294 294 295 296 296 297 298 299 300 300 300 300 301 301 301 301 301 300 299 299 299 300 301 302 303 302 302 302 302 302 301 301 301 301 301 302 302 302 302 302 302 303 304 304 306 307 309 311 310 309 307 305 303 302 302 302 303 303 309 318 325 324 320 316 315 316
291 291 292 293 294 295 295 296 297 298 299 299 300 300 300 301 300 301 300 300 299 299 300 300 301 302 303 303 303 302 302 302 301 301 301 301 301 302 302 301 301 301 301 301 302 303 304 306 307 310 311 310 308 306 303 302 301 301 302 302 305 313 320 325 322 319 316 314 315
290 291 292 292 293 294 295 296 297 297 298 298 299 299 300 300 300 300 300 300 301 301 301 301 301 302 303 303 302 302 302 302 302 301 302 302 301 301 301 301 301 300 300 301 302 303 305 307 308 310 311 310 308 305 304 304 302 302 303 304 309 315 321 323 321 318 315 315 314